Regional Weather Roundup
Issued by NWS

Home | Current Version | Previous Version | Graphics & Text | Print | Product List | Glossary On
Versions: 1 2 3 4 5 6 7 8 9 10 11 12 13 14 15 16 17 18 19 20 21 22 23 24 25 26 27 28 29 30 31 32 33 34 35 36 37 38 39 40 41 42 43 44 45 46 47 48 49 50
000
ASUS45 KABQ 242101
RWRNM
WEATHER ROUNDUP FOR NEW MEXICO
NATIONAL WEATHER SERVICE ALBUQUERQUE NM
300 PM MDT FRI APR 24 2015

NOTE: "FAIR" MEANS FEW OR NO CLOUDS BELOW 12,000 FEET AGL WITH NO
       SIGNIFICANT WEATHER OR OBSTRUCTIONS TO VISION.

      THIS PRODUCT IS RELEASED AS TWO VERSIONS.  ONE VERSION NEAR
      THE TOP OF THE HOUR CONTAINING PRELIMINARY DATA FROM ALBUQUERQUE
      AND OTHER STATIONS.  A FINAL VERSION WITH ADDITIONAL DATA IS
      ISSUED ABOUT 10 MINUTES AFTER THE HOUR.

NMZ501-503-504-510>518-242200-
NORTHWEST PLATEAU/NORTHCENTRAL MOUNTAINS

CITY           SKY/WX    TMP DP  RH WIND       PRES   REMARKS
FARMINGTON     MOSUNNY   65  21  18 W18G25    29.80F
LOS ALAMOS     PTSUNNY   54  23  30 SW14G23   29.85F
SANTA FE       PTSUNNY   54  25  32 W21G35    29.84S
TAOS           PTSUNNY   57  16  19 W14G31    29.79F
ANGEL FIRE     CLOUDY    38  35  91 N16G22    29.84F WCI  29

$$
NMZ402-403-502-505>509-242200-
WESTCENTRAL MOUNTAINS/SOUTHWEST MOUNTAINS

CITY           SKY/WX    TMP DP  RH WIND       PRES   REMARKS
GALLUP         MOSUNNY   54  36  50 SW18G26   29.94F
GRANTS         CLOUDY    55  25  32 NW24G38   29.92R
SILVER CITY      N/A     63  25  23 W21G32    29.99F

$$
NMZ407-409-411-412-242200-
SOUTHERN DESERTS

CITY           SKY/WX    TMP DP  RH WIND       PRES   REMARKS
LORDSBURG      FAIR      68  30  24 W20G30    29.96F
DEMING         MOSUNNY   69  27  20 W23G40    29.94F
LAS CRUCES     SUNNY     70  26  19 W28G33    29.93F
HOLLOMAN AFB   MOSUNNY   72  28  20 W16G29    29.86S
ALAMOGORDO     MOSUNNY   70  27  19 SW18G26   29.88F
T OR C         MOSUNNY   69  23  17 W12G21    29.86F

$$
NMZ519>523-242200-
CENTRAL VALLEYS/CENTRAL HIGHLANDS

CITY           SKY/WX    TMP DP  RH WIND       PRES   REMARKS
ALBUQUERQUE    PTSUNNY   53  38  56 NE8       29.88F
DOUBLE EAGLE   PTSUNNY   55  36  47 NW5       29.88F
MORIARTY ARPT  LGT RAIN  46  27  46 N8G51     29.91R
CLINES CORNERS PTSUNNY   48  33  56 W43G62    29.87S
BELEN          DRIZZLE   56  41  56 E7        29.88F
SOCORRO        PTSUNNY   63  32  32 SE14      29.84F

$$
NMZ524>526-539-540-242200-
SOUTHCENTRAL MOUNTAINS

CITY           SKY/WX    TMP DP  RH WIND       PRES   REMARKS
RUIDOSO        NOT AVBL

$$
NMZ527>531-242200-
NORTHEAST HIGHLANDS/NORTHEAST PLAINS

CITY           SKY/WX    TMP DP  RH WIND       PRES   REMARKS
LAS VEGAS      PTSUNNY   56  28  34 W25G38    29.78S
RATON          PTSUNNY   60  26  27 W25G35    29.68F
CLAYTON        PTSUNNY   70  35  27 W15G30    29.60F

$$
NMZ532>537-242200-
EASTCENTRAL PLAINS

CITY           SKY/WX    TMP DP  RH WIND       PRES   REMARKS
TUCUMCARI      MOSUNNY   72  28  19 W29G38    29.67F
CANNON AFB     NOT AVBL
CLOVIS AIRPORT MOSUNNY   70  34  26 W33G40    29.75R

$$
NMZ028-029-538-242200-
SOUTHEAST PLAINS

CITY           SKY/WX    TMP DP  RH WIND       PRES   REMARKS
ROSWELL        MOSUNNY   74  35  24 W13       29.79S
ARTESIA        SUNNY     77  27  15 W22G36    29.80F
CARLSBAD       SUNNY     79  26  14 W25G37    29.81F
HOBBS          SUNNY     75  25  15 SW29G41   29.80F


$$



USA.gov is the U.S. government's official web portal to all federal, state and local government web resources and services.